Broken Bow, NE

3:43 AM CDT on April 24, 2017 (GMT -0500)
Broken Bow Municipal

Weather History for KBBW - April, 2014

Change the Weather History Date:

Wednesday, April 2, 2014

  Actual Average Record
Temperature  
Mean Temperature 34 °F 43 °F  
Max Temperature 41 °F 57 °F 86 °F (1921)
Min Temperature 26 °F 30 °F 4 °F (1936)
Degree Days  
Heating Degree Days 31 22  
Month to date heating degree days 65 44  
Cooling Degree Days 0 0  
Month to date cooling degree days 0 0  
Year to date cooling degree days 0 0  
Moisture  
Dew Point 27 °F    
Average Humidity 76    
Maximum Humidity 100    
Minimum Humidity 52    
Precipitation  
Precipitation 0.00 in 0.06 in 1.06 in (1925)
Sea Level Pressure  
Sea Level Pressure 29.91 in    
Wind  
Wind Speed 10 mph (ENE)    
Max Wind Speed 20 mph    
Max Gust Speed 28 mph    
Visibility 8 miles    
Events      
T = Trace of Precipitation, MM = Missing Value Source: NWS Daily Summary

Daily Weather History Graph

Daily Weather History Graph

Search for Another Location

Airport or City:

Trip Planner

Search our weather history database for the weather conditions in past years. The results will help you decide how hot, cold, wet, or windy it might be!

Date:

Astronomy

Apr. 02, 2014 Rise Set
Actual Time 7:19 AM CDT 8:04 PM CDT
Civil Twilight 6:51 AM CDT 8:32 PM CDT
Nautical Twilight 6:18 AM CDT 9:06 PM CDT
Astronomical Twilight 5:44 AM CDT 9:40 PM CDT
Moon 9:03 AM CDT (4/2) 11:31 PM CDT (4/2)
Length of Visible Light 13h 41m
Length of Day
12h 45m
Waxing Crescent, 10% of the Moon is Illuminated
Apr 2
Waxing Crescent
Apr 7
First Quarter
Apr 15
Full
Apr 22
Last Quarter
Apr 29
New

Hourly Weather History & Observations

Time (CDT) Temp. Windchill Dew Point Humidity Pressure Visibility Wind Dir Wind Speed Gust Speed Precip Events Conditions
12:53 AM 30.0 °F 21.1 °F 19.0 °F 64% 30.04 in 10.0 mi ENE 10.4 mph - N/A   Scattered Clouds
1:53 AM 28.9 °F 21.1 °F 19.0 °F 67% 30.05 in 10.0 mi ESE 8.1 mph - N/A   Mostly Cloudy
2:53 AM 27.0 °F 19.5 °F 18.0 °F 69% 30.04 in 10.0 mi East 6.9 mph - N/A   Clear
3:53 AM 26.1 °F 20.5 °F 18.0 °F 71% 30.00 in 10.0 mi NE 4.6 mph - N/A   Scattered Clouds
4:53 AM 27.0 °F 20.5 °F 19.0 °F 72% 30.00 in 10.0 mi ENE 5.8 mph - N/A   Overcast
5:53 AM 26.1 °F 19.4 °F 19.0 °F 75% 29.99 in 10.0 mi ENE 5.8 mph - N/A   Mostly Cloudy
7:53 AM 26.1 °F 18.4 °F 19.9 °F 78% 30.01 in 10.0 mi ENE 6.9 mph - N/A   Overcast
8:53 AM 28.9 °F 21.1 °F 19.9 °F 69% 30.00 in 10.0 mi East 8.1 mph - N/A   Overcast
9:53 AM 33.1 °F 24.4 °F 21.0 °F 61% 29.98 in 10.0 mi East 11.5 mph - N/A   Overcast
10:53 AM 37.0 °F 28.5 °F 21.9 °F 54% 29.94 in 10.0 mi East 13.8 mph - N/A   Overcast
11:53 AM 39.9 °F 31.4 °F 24.1 °F 53% 29.92 in 10.0 mi East 16.1 mph 26.5 mph N/A   Overcast
12:53 PM 39.9 °F 31.4 °F 25.0 °F 55% 29.91 in 10.0 mi East 16.1 mph - N/A   Overcast
1:32 PM 39.9 °F 32.1 °F 25.0 °F 55% 29.85 in 10.0 mi East 13.8 mph - N/A   Overcast
1:53 PM 39.9 °F 32.9 °F 26.1 °F 58% 29.90 in 10.0 mi East 11.5 mph - N/A   Overcast
2:53 PM 39.0 °F 31.4 °F 28.9 °F 67% 29.89 in 10.0 mi East 12.7 mph - N/A   Overcast
3:53 PM 39.9 °F 32.1 °F 30.0 °F 68% 29.88 in 10.0 mi East 13.8 mph 24.2 mph N/A   Overcast
4:35 PM 37.0 °F 27.7 °F 30.9 °F 79% 29.82 in 10.0 mi East 16.1 mph 26.5 mph N/A   Overcast
4:53 PM 36.0 °F 26.3 °F 32.0 °F 86% 29.88 in 10.0 mi East 16.1 mph 26.5 mph N/A   Overcast
5:53 PM 36.0 °F 28.0 °F 32.0 °F 86% 29.88 in 8.0 mi East 11.5 mph - N/A   Overcast
6:53 PM 36.0 °F 28.5 °F 30.9 °F 82% 29.88 in 10.0 mi East 10.4 mph - N/A   Overcast
7:53 PM 35.1 °F 27.4 °F 30.9 °F 85% 29.89 in 10.0 mi East 10.4 mph - N/A   Overcast
8:53 PM 34.0 °F 28.8 °F 32.0 °F 92% 29.88 in 6.0 mi NE 5.8 mph - N/A   Overcast
9:27 PM 34.0 °F 26.6 °F 33.1 °F 96% 29.81 in 4.0 mi NE 9.2 mph - N/A   Overcast
9:48 PM 33.8 °F 26.4 °F 33.8 °F 100% 29.81 in 2.5 mi NNE 9.2 mph - N/A   Overcast
9:53 PM 34.0 °F 26.6 °F 33.1 °F 96% 29.86 in 2.5 mi NNE 9.2 mph - N/A   Overcast
10:25 PM 34.0 °F 27.2 °F 33.1 °F 96% 29.79 in 3.0 mi North 8.1 mph - N/A   Overcast
10:53 PM 34.0 °F 26.6 °F 33.1 °F 96% 29.86 in 4.0 mi NNE 9.2 mph - N/A   Overcast
11:05 PM 34.0 °F 28.8 °F 33.1 °F 96% 29.83 in 4.0 mi NE 5.8 mph - N/A   Overcast
11:53 PM 34.0 °F 28.8 °F 34.0 °F 100% 29.89 in 4.0 mi NE 5.8 mph - N/A   Overcast